DECAYED
Showing default

UMBRA-2001, 48906 (Decayed)

Orbit data source: Space-Track

UMBRA-2001, 48906 was a payload satellite owned by Umbra Labs (US) in LEO that was launched on Wed, 30 Jun 2021 UTC via an FALCON 9 launch vehicle from the Air Force Eastern Test Range (AFETR). Payload-class satellites include a variety of spacecraft equipped with specific instruments for various scientific and technological missions. These include communications satellites like Starlink; space stations such as the ISS; scientific satellites like the Hubble; Earth observation satellites from companies like Planet Labs, Umbra, and HawkEye 360; GPS; miniature CubeSats for education and research; and military/defense satellites.

Not visible in the next 10 days
Identifier
48906, 2021-059AD
Orbit
Decayed
Country
Flag of USUS
Related business
Manufacturer
Umbra Labs
Mission
Decayed Commercial Radar Imaging
Bus & Motor
UMBRA, Unknown motor
Mass
65 kg wet, 60 kg dry
Launch date (UTC)
2021-06-30 (4 years ago)
Launch vehicle
FALCON 9
Launch site
Air Force Eastern Test Range (AFETR)
Object type
Payload
Rocket body
Debris
Shape & HBR
Box + 2 Pan + 1 Dish, 1.9 m
Radar Cross Section
0.929 m², Large (>1 m²)

Expand to show TLE details & history
Last TLE update: 1 year ago

TLE from 1 year ago
0 UMBRA-2001
1 48906U 21059AD  24121.62758556  .29722499  26589-5  18310-2 0  9992
2 48906  97.5682 263.1127 0014831 247.0672 239.4234 16.40337929157692
Epoch: 2024-04-30T15:03Z
TLE epoch observation values (Epoch: 2024-04-30T15:03:43.392Z)
Latitude
53.09308°
Longitude
8.26386°
Altitude
178.624 km
Speed
7.801 km/s
True Right ascension
06h 12m 58s
True Declination
52° 54' 47"
Sunlit
Object was in daylight at epoch
Visualization orbit readout
Latitude
Unknown
Longitude
Unknown
Altitude
Unknown
Speed
Unknown
Apparent Right ascension
Unknown
Apparent Declination
Unknown
Sunlit
N/A
Visualization observer readout
Local Sidereal Time
19:18:47
Azimuth
Unknown
Elevation
Unknown
Doppler factor
Unknown
Orbital elements
Apogee altitude
171.418 km
Perigee altitude
152.019 km
Semi-major axis
6,539.856 km
Eccentricity
0.00148
Inclination
97.5682°
RAAN
263.1127°
Arg. of periapsis
247.0672°
True anomaly
239.27722°
Mean anomaly
239.4234°
Eccentric anomaly
239.3503°
Mean motion
4.10384 °/min
Orbital period
87.72 mins
BSTAR
0.001831
Loading maneuver chart data...
Computing Atmospheric mass density...
Loading historical data...
Loading historical data...
Loading historical data...
Loading historical data...
Loading historical data...
Loading historical data...
Loading historical data...

Documentation

Showing up to 5 results
|